SCP
0 0 0 0 0 0 0 0 0 0 0 0 0 1 1 1 0 0 1 1 1 2 3 3 3 4 3 3 3 2 2 2 2 2 2 2 2 2 2 2 2 2 2 1 1 1 1 1 1
0 0 0 0 0 0 0 0 0 0 0 1 1 1 1 1 1 1 1 1 2 2 3 3 3 3 3 3 3 3 2 2 2 2 2 2 2 2 2 2 2 2 2 2 1 1 1 1 1
0 0 0 0 0 0 0 0 0 0 1 1 2 2 1 1 1 1 1 2 2 2 3 3 3 3 3 3 3 3 3 2 2 2 2 2 2 3 3 3 3 2 2 2 2 1 1 1 1
0 0 0 0 0 0 0 0 0 1 1 2 2 2 2 1 1 1 2 2 2 3 3 3 3 3 3 3 3 3 3 3 2 2 2 2 3 3 3 3 3 3 3 2 2 1 1 1 1
0 0 0 0 0 0 0 0 1 1 2 2 3 3 2 1 1 2 2 3 3 3 3 3 3 3 3 3 3 3 3 3 2 2 2 2 3 3 3 3 3 3 3 2 2 2 1 1 1
0 0 0 0 0 0 0 1 1 1 1 2 3 3 2 2 2 2 3 3 3 3 4 3 3 3 3 3 3 3 3 3 2 2 2 2 3 3 4 3 3 3 3 2 2 2 2 1 1
0 0 0 0 0 0 0 1 1 1 1 2 3 2 2 2 2 3 3 4 4 3 3 3 3 3 3 4 4 3 3 3 3 2 2 2 3 3 3 3 3 2 2 2 2 2 2 2 2
0 0 0 0 0 0 1 1 1 1 1 2 2 2 2 2 3 4 4 4 4 3 3 3 3 4 4 4 4 4 4 3 3 3 3 3 3 3 3 3 3 2 2 2 3 3 3 3 4
0 0 0 0 0 1 1 1 1 1 2 2 2 2 2 3 4 4 4 4 4 4 3 4 4 4 4 4 4 5 4 4 3 3 3 4 4 4 4 4 4 2 1 2 3 4 4 5 5
0 0 1 1 1 1 1 2 2 2 2 2 2 2 3 4 5 5 4 4 4 4 4 4 5 5 4 5 5 5 6 5 4 4 4 4 4 5 5 5 4 3 2 2 3 4 5 6 7
1 1 1 2 1 1 2 3 2 2 2 2 2 3 4 4 4 4 4 4 4 3 3 4 5 5 5 5 6 6 7 7 6 5 4 4 4 4 5 5 4 2 2 2 3 5 6 6 7
1 1 2 2 2 2 3 3 2 2 2 2 2 3 4 4 4 4 4 4 4 3 3 4 5 6 6 6 7 7 8 8 7 5 4 3 3 4 4 4 3 2 2 2 2 3 5 4 4
1 1 2 2 2 2 3 3 2 2 2 2 3 4 4 4 4 4 4 5 5 4 4 5 6 7 7 7 8 8 8 8 7 5 4 3 3 3 3 3 3 3 3 2 2 2 3 2 2
1 1 1 1 1 2 2 2 1 2 2 2 3 4 4 4 4 4 4 5 5 5 5 5 6 7 8 8 9 8 8 7 6 5 4 4 3 3 2 3 3 3 3 3 3 3 2 2 1
1 1 1 1 1 1 1 1 1 1 2 2 3 3 3 4 4 4 4 4 4 5 5 6 6 7 8 8 8 8 7 7 6 5 4 4 3 2 2 2 2 2 2 3 3 3 3 2 2
0 1 1 1 1 0 1 1 1 1 1 2 3 4 4 4 4 4 3 3 3 4 5 6 6 7 7 8 8 7 7 6 5 5 4 4 3 2 2 2 1 1 1 1 2 2 3 2 2
0 0 0 0 0 0 0 0 1 1 2 2 3 5 5 4 3 3 3 3 3 4 4 5 6 6 7 7 7 7 6 6 5 5 4 3 3 2 2 2 1 1 1 1 1 1 2 2 2
0 0 0 0 0 0 0 1 1 1 2 3 4 5 5 4 3 3 3 3 3 3 3 4 5 6 6 7 7 6 6 6 5 5 4 3 3 2 2 2 1 1 1 1 1 1 1 1 1
0 0 0 0 0 0 0 1 1 1 2 3 4 5 4 3 3 3 4 3 3 3 3 4 4 5 6 7 7 6 6 5 5 5 4 3 3 2 2 2 2 1 1 1 1 1 1 1 1
0 0 0 0 0 0 0 1 1 1 1 2 2 3 3 3 3 4 4 4 3 3 3 3 4 5 6 6 7 6 6 5 5 5 4 3 3 2 2 2 1 1 1 1 1 1 1 1 1
0 0 0 0 0 0 0 0 0 1 1 1 1 2 2 2 3 5 4 3 3 3 3 4 4 5 5 6 6 6 5 5 5 4 4 3 3 3 2 2 1 1 1 1 1 1 1 1 1
0 0 0 0 0 0 0 0 0 0 1 1 1 2 1 2 3 3 3 3 2 2 3 4 5 5 5 5 5 5 4 4 4 4 3 2 2 2 3 2 1 1 1 1 1 1 1 1 1
0 0 0 0 0 0 0 0 0 0 0 1 1 2 1 2 2 2 2 2 2 2 3 4 4 5 5 4 4 4 3 3 3 3 2 2 2 2 2 2 2 1 1 1 1 1 1 1 1
0 0 0 0 0 0 0 0 0 0 0 0 1 1 1 1 1 1 1 2 2 2 2 3 3 4 4 4 4 3 3 2 2 2 2 2 2 2 2 2 2 1 1 1 0 0 0 1 1
0 0 0 0 0 0 0 0 0 0 0 0 0 1 1 1 1 2 3 3 3 3 2 2 2 2 3 3 3 2 2 2 2 2 2 2 2 2 2 2 2 1 1 1 0 0 0 1 1
0 0 0 0 0 0 0 0 0 0 0 0 0 0 0 1 2 3 4 5 4 3 2 2 2 2 2 2 2 1 1 1 1 1 1 2 2 2 2 2 2 1 1 0 0 0 1 1 1
0 0 0 0 0 0 0 0 0 0 0 0 0 0 1 1 2 3 5 5 4 2 2 2 2 2 2 1 1 1 1 1 1 0 1 1 1 2 1 1 1 1 1 1 0 0 1 1 1
0 0 0 0 0 0 0 0 0 0 0 0 0 1 1 1 2 3 4 4 3 1 2 2 2 2 2 1 1 1 1 1 1 0 0 0 1 1 1 1 1 1 1 1 1 1 1 1 1
0 0 0 0 0 0 0 0 0 0 0 0 0 1 1 1 1 2 2 2 1 1 2 2 3 3 2 2 1 1 1 1 1 0 0 0 1 1 1 0 0 1 1 1 1 1 0 0 1
0 0 0 0 0 0 0 0 0 0 0 0 0 0 1 1 1 1 1 1 1 1 1 2 3 3 3 2 1 1 1 1 1 0 0 0 0 1 1 0 0 1 1 1 1 1 0 0 0
Wind_Speed
3 3 2 3 5 4 3 5 3 2 2 2 1 2 4 4 4 3 1 9 12 12 11 14 17 17 16 16 16 15 16 15 15 15 15 14 13 12 11 11 10 9 8 7 6 6 5 4 4
2 2 3 5 5 0 5 4 3 3 3 1 1 0 1 0 1 3 3 7 12 12 10 11 17 16 16 16 15 15 15 15 14 14 14 13 12 11 11 10 9 8 7 6 5 5 4 4 3
2 2 4 5 3 5 5 3 3 3 2 1 1 1 1 0 1 3 4 10 10 10 9 11 17 16 15 15 15 15 14 14 13 13 13 12 11 11 10 9 8 7 6 5 5 4 4 3 3
3 4 5 4 3 5 5 5 4 4 3 1 1 1 1 1 1 4 9 11 10 9 8 10 16 15 15 14 14 14 13 13 12 12 11 11 10 10 9 8 7 7 6 5 4 4 3 3 2
4 5 4 1 4 5 5 6 4 3 2 1 1 0 1 2 6 8 10 10 10 8 6 8 15 14 14 13 13 13 12 12 11 10 10 9 9 8 8 7 6 6 5 5 4 3 3 2 2
5 5 4 2 5 5 5 4 3 3 2 2 1 2 0 3 7 7 9 8 8 8 6 6 13 14 14 13 13 12 11 10 10 9 9 9 8 7 7 6 5 5 4 4 3 3 2 2 2
5 4 3 3 3 5 4 2 2 3 2 2 2 2 1 3 6 8 8 8 7 7 6 4 5 8 12 12 12 11 10 9 9 9 8 8 7 6 6 5 5 4 4 4 3 3 2 2 3
5 5 1 2 3 5 4 3 1 1 2 1 2 4 3 4 8 9 8 8 7 6 5 4 3 3 4 6 10 10 10 9 9 8 8 7 6 5 4 4 4 4 4 4 4 3 3 3 3
4 5 2 4 4 4 3 3 3 1 2 2 1 1 3 11 12 10 8 7 6 5 4 4 3 3 3 3 6 7 8 8 7 6 6 5 2 2 2 3 4 4 4 4 4 3 2 2 3
4 3 7 5 4 3 3 3 2 2 2 1 2 3 9 12 12 11 9 8 7 6 5 4 4 4 4 4 3 2 3 3 2 2 2 2 1 1 2 2 4 4 4 4 4 3 2 2 1
4 6 5 5 5 3 2 3 1 1 2 2 4 7 10 10 10 9 8 7 7 6 5 4 4 3 4 3 3 2 2 2 2 2 1 1 1 1 1 0 1 2 3 2 2 2 1 0 1
3 5 4 4 2 1 2 2 1 1 4 1 4 9 10 10 9 8 8 6 5 5 5 4 4 4 3 3 3 2 2 2 2 2 2 1 1 1 0 0 1 1 1 1 1 1 1 1 1
4 4 4 4 2 1 0 1 0 2 2 2 7 8 8 7 6 5 5 6 5 5 5 4 4 4 4 3 3 3 2 2 3 2 2 2 2 1 1 0 0 0 1 1 1 1 1 1 2
4 3 3 3 1 0 2 1 1 3 1 5 7 7 6 7 7 6 5 5 5 6 5 4 5 4 4 3 3 3 3 2 2 2 2 3 2 2 1 0 0 0 1 1 1 2 2 2 2
0 1 4 2 1 1 3 3 2 3 3 4 5 5 5 5 6 6 7 6 6 6 5 5 5 4 4 4 4 3 3 3 3 2 2 2 2 2 1 1 1 1 1 1 1 1 1 1 2
2 3 3 4 1 1 4 2 4 1 3 3 4 4 4 3 4 4 4 4 4 5 5 6 5 5 5 4 3 2 2 2 2 2 2 2 2 2 2 1 1 1 0 1 1 1 1 1 1
4 1 2 5 2 0 3 3 3 0 3 3 3 4 4 2 1 1 3 3 4 5 5 5 4 5 5 4 2 1 1 1 1 2 2 2 2 2 2 1 1 1 0 1 1 1 1 2 2
3 2 2 3 3 2 1 3 3 0 3 3 3 3 3 3 3 1 1 2 3 3 3 4 3 3 3 2 2 1 1 0 1 1 2 2 2 2 2 1 1 1 1 1 1 1 1 2 2
2 2 3 5 2 1 2 2 3 1 1 2 2 3 4 4 2 1 2 3 3 3 3 3 3 3 3 2 2 2 2 1 1 1 2 2 2 2 1 1 1 1 1 1 1 1 1 1 1
1 1 3 4 2 1 1 2 2 1 1 2 3 3 3 2 0 1 2 2 2 2 2 3 3 3 3 3 2 2 1 1 1 1 1 2 2 2 2 2 2 1 1 1 1 1 1 1 0
1 2 3 3 2 2 1 3 2 2 1 1 0 1 2 3 4 3 3 2 2 2 2 2 3 3 3 3 2 2 1 1 0 0 1 1 1 2 2 2 2 2 2 2 3 2 2 2 1
3 3 2 1 1 2 2 2 4 2 3 2 2 2 2 2 2 2 2 2 2 2 2 2 2 2 2 3 3 3 2 2 2 1 1 1 1 1 2 2 2 3 2 3 4 3 3 3 2
3 1 1 1 2 2 3 1 5 3 4 4 3 2 2 2 2 2 2 2 2 2 2 2 2 2 2 3 3 3 2 1 1 1 1 1 1 1 2 2 3 3 3 3 4 3 3 3 3
1 4 4 5 4 2 2 1 4 3 4 5 4 2 1 2 1 1 0 1 1 1 1 1 2 2 2 2 3 3 3 2 2 2 2 2 1 2 2 3 3 3 3 3 4 4 4 3 4
5 6 5 6 4 3 2 1 4 4 3 3 3 3 1 1 1 1 1 1 1 1 1 1 1 1 2 2 2 3 4 4 4 3 2 2 2 2 3 3 3 3 3 3 3 3 4 4 4
1 4 5 2 2 4 3 2 4 3 3 3 2 2 2 1 1 0 0 1 1 1 2 2 2 2 2 2 2 2 3 2 2 2 2 3 3 3 3 3 3 3 3 3 3 3 4 3 4
2 2 2 5 1 1 4 5 5 5 7 7 6 5 4 3 1 0 1 0 1 1 2 2 2 2 2 2 2 1 1 1 2 2 2 2 2 2 3 3 2 3 2 2 2 2 3 3 3
3 4 4 4 2 2 4 4 4 8 8 7 6 5 5 4 3 1 1 1 1 1 1 1 1 2 1 1 1 1 1 1 2 1 2 2 2 2 2 2 2 2 2 2 2 2 3 2 3
4 4 5 3 2 2 2 4 2 3 4 4 5 5 4 4 3 2 2 2 2 2 2 1 1 1 0 1 1 1 0 0 0 1 2 2 2 2 2 2 2 2 2 2 2 3 3 2 2
2 2 3 2 1 1 1 5 3 3 3 3 4 5 4 3 3 2 2 2 2 2 2 1 1 0 0 0 1 1 0 0 0 1 2 2 2 2 2 2 2 3 3 3 2 3 3 2 3
Wind_Direction
132 106 89 66 56 47 266 253 235 280 265 251 212 195 176 174 179 214 123 142 138 146 153 155 154 151 147 142 138 134 132 131 130 130 131 133 134 137 138 138 139 140 140 141 141 140 135 129 127
129 114 64 63 88 104 267 244 233 243 251 279 299 160 118 202 71 111 128 144 141 144 147 153 154 151 147 143 140 137 136 136 135 135 136 136 138 138 139 141 142 143 144 146 146 146 141 139 141
137 76 85 79 124 196 244 244 242 289 287 264 294 19 100 88 122 148 150 140 136 140 143 155 155 152 149 146 144 143 142 141 140 139 140 141 142 142 143 146 148 148 147 148 151 150 147 151 154
96 55 58 81 225 233 237 268 289 311 316 291 114 27 38 39 134 134 131 135 135 138 142 156 156 154 152 150 148 147 145 144 144 143 144 144 145 147 150 153 155 155 155 158 163 161 160 167 172
61 78 64 18 262 259 254 259 252 269 279 276 105 133 346 15 89 115 130 137 139 137 138 153 156 156 155 154 152 149 147 147 146 147 148 149 152 152 155 160 162 163 163 169 174 174 179 190 198
61 70 86 263 273 277 269 253 250 243 244 248 147 147 50 88 108 129 130 128 132 135 134 147 159 159 157 156 155 152 150 149 150 154 159 160 160 160 165 169 172 174 180 186 186 183 193 214 225
106 102 152 224 268 286 273 273 231 223 246 242 163 128 122 127 129 127 119 114 116 124 127 134 150 160 162 159 157 155 154 155 160 164 168 168 170 174 180 181 189 195 199 204 206 208 214 231 244
125 105 134 243 246 268 289 312 299 225 243 180 118 150 193 162 131 117 108 108 113 117 123 124 131 140 147 156 163 162 162 165 169 171 171 172 180 188 191 192 202 213 224 228 226 224 233 246 254
95 82 213 228 220 260 297 329 329 344 112 86 77 161 147 132 127 120 115 114 127 135 131 127 131 134 134 147 168 167 171 173 175 175 176 176 178 188 202 204 209 232 244 246 246 237 241 258 266
100 147 222 223 208 236 304 306 306 359 37 74 65 81 118 131 136 140 144 148 154 159 161 149 152 156 153 166 153 145 158 157 150 135 159 156 155 188 196 213 225 237 244 254 257 251 252 263 279
157 199 234 254 231 231 280 298 312 136 292 237 185 151 143 144 145 151 156 158 164 162 163 161 163 166 162 155 143 146 142 134 131 138 160 153 154 181 198 200 269 279 274 287 302 299 287 238 241
182 241 233 261 243 228 251 277 4 150 251 237 148 147 146 153 158 161 159 157 157 154 166 162 168 161 161 150 149 149 145 145 143 146 155 154 167 193 222 217 255 287 291 291 310 283 257 248 248
213 255 248 254 288 240 226 290 274 298 297 83 119 130 142 150 154 149 150 152 155 161 171 173 169 166 162 152 148 145 145 146 147 156 171 166 171 182 206 268 294 305 305 284 274 261 246 248 257
222 241 279 298 315 312 111 328 58 294 46 104 121 131 143 155 161 153 151 160 167 172 174 170 172 170 159 158 158 155 158 157 159 174 182 170 168 168 171 208 241 279 273 269 263 263 254 251 249
235 329 325 309 302 244 108 17 325 283 104 117 131 138 145 163 159 164 174 178 178 175 170 172 174 165 163 167 171 163 167 165 173 181 174 161 161 157 158 198 241 255 261 265 264 274 270 268 265
30 31 334 306 343 311 113 260 286 287 118 136 144 147 161 172 170 160 158 167 172 170 171 181 177 171 173 174 177 167 162 163 175 167 166 169 167 163 159 196 250 258 246 252 251 265 280 284 285
23 359 279 302 312 60 127 220 276 158 139 154 160 161 171 175 173 153 154 163 167 173 174 177 176 174 179 176 164 147 141 170 188 164 171 183 180 173 168 196 233 226 213 250 266 286 254 267 281
250 249 270 275 302 62 123 235 272 232 156 175 171 166 175 197 218 178 149 152 155 160 167 172 171 170 164 149 122 103 103 170 207 188 195 192 192 183 177 196 221 210 210 256 262 275 271 255 266
208 234 275 274 274 87 210 257 270 264 152 175 181 187 195 219 212 138 140 132 124 134 157 164 171 169 152 157 164 169 192 212 223 218 213 202 198 186 173 200 225 222 230 245 249 245 275 288 292
177 284 291 300 332 148 175 298 295 4 189 194 200 211 213 226 166 159 153 136 136 148 177 173 172 168 168 176 172 174 164 200 217 234 228 206 197 200 199 189 212 226 236 259 256 235 247 276 243
285 210 245 252 338 40 84 338 339 348 26 46 27 247 227 212 200 191 179 176 162 165 185 191 184 183 178 166 134 103 85 63 66 243 254 247 226 218 206 201 210 226 223 238 242 227 213 241 253
279 260 224 213 82 330 39 305 311 320 349 360 345 327 286 246 219 201 178 170 174 189 172 173 180 178 173 162 164 172 182 207 230 226 236 281 269 253 225 214 213 226 231 236 243 227 216 213 238
240 341 45 45 120 47 17 88 305 352 334 313 308 297 281 260 218 215 200 172 167 158 166 172 162 160 171 175 173 171 182 209 234 243 253 277 283 268 255 240 229 233 236 238 243 239 229 216 217
67 45 46 46 64 36 330 93 302 324 310 321 327 317 303 307 290 250 222 130 128 121 151 151 146 189 189 177 173 174 183 198 220 237 240 264 270 265 252 254 247 245 246 248 248 245 238 232 228
46 63 29 8 15 282 317 96 265 305 325 311 316 321 329 304 276 252 171 142 153 173 209 172 160 211 207 187 189 189 196 202 214 221 230 253 265 263 256 252 248 252 251 253 248 245 247 236 232
28 109 138 193 247 297 344 290 274 329 348 342 340 347 360 353 301 240 188 205 228 227 213 191 197 205 202 193 196 194 196 208 222 226 232 244 256 259 258 256 252 254 255 259 256 257 254 245 244
69 58 141 129 86 350 319 314 318 3 7 9 9 8 356 344 338 356 14 351 302 264 239 206 189 185 196 197 186 192 196 214 236 248 243 248 251 259 258 259 260 265 265 265 266 268 270 262 256
85 121 72 83 90 341 321 325 324 338 342 349 353 356 345 344 351 4 10 8 360 341 355 35 116 164 189 194 192 193 196 218 237 250 272 276 271 271 276 276 279 283 281 277 275 283 279 273 273
17 44 69 81 117 135 306 294 292 306 324 328 330 342 345 343 349 8 10 12 18 27 35 51 59 74 130 173 166 131 164 218 245 257 270 276 278 272 264 268 274 281 285 284 285 290 289 282 291
61 76 109 105 1 131 181 275 322 348 342 347 344 350 357 357 358 16 30 33 31 32 29 39 59 85 181 145 112 104 105 53 349 292 287 285 285 278 267 266 271 280 284 283 281 292 292 282 288